• In Deutschland
  • Länderverzeichnis
  • Für 7 Tage
  • Wassertemperatur
  • Satellitenkarten
  • Wetterkarte
  • Widgets
  • user-avatar
    Anmelden

    Stündliche Wetter Rendsburg

    Heute, 18 Oktober, Mittwoch

    Zeit Temperatur Niederschläge Wind Luftdruck Luftfeuchtigkeit
    00:00 +12°C° 0 mm 5 m/S 761 mmHg 84%
    01:00 +10°C° 0 mm 5 m/S 761 mmHg 84%
    02:00 +10°C° 0 mm 5 m/S 761 mmHg 86%
    03:00 +11°C° 0 mm 4 m/S 760 mmHg 88%
    04:00 +11°C° 0 mm 4 m/S 760 mmHg 89%
    05:00 +11°C° 0 mm 4 m/S 760 mmHg 90%
    06:00 +10°C° 0 mm 3 m/S 760 mmHg 90%
    07:00 +10°C° 0 mm 3 m/S 760 mmHg 91%
    08:00 +11°C° 0 mm 3 m/S 760 mmHg 87%
    09:00 +14°C° 0 mm 2 m/S 760 mmHg 82%
    10:00 +15°C° 0 mm 2 m/S 760 mmHg 78%
    11:00 +15°C° 0 mm 2 m/S 760 mmHg 75%
    12:00 +16°C° 0 mm 1 m/S 760 mmHg 72%
    13:00 +18°C° 0 mm 1 m/S 760 mmHg 68%
    14:00 +18°C° 0 mm 1 m/S 760 mmHg 70%
    15:00 +16°C° 0 mm 1 m/S 760 mmHg 72%
    16:00 +15°C° 0 mm 0 m/S 759 mmHg 74%
    17:00 +16°C° 0 mm 1 m/S 759 mmHg 76%
    18:00 +15°C° 0 mm 1 m/S 760 mmHg 78%
    19:00 +14°C° 0 mm 2 m/S 760 mmHg 81%
    20:00 +14°C° 0 mm 2 m/S 760 mmHg 81%
    21:00 +13°C° 0 mm 2 m/S 760 mmHg 82%
    22:00 +13°C° 0 mm 2 m/S 760 mmHg 83%
    23:00 +12°C° 0 mm 3 m/S 760 mmHg 84%

    Morgen, 19 Oktober, Donnerstag

    Zeit Temperatur Niederschläge Wind Luftdruck Luftfeuchtigkeit
    00:00 +12°C° 0 mm 3 m/S 760 mmHg 84%
    01:00 +12°C° 0 mm 3 m/S 759 mmHg 85%
    02:00 +12°C° 0 mm 3 m/S 759 mmHg 85%
    03:00 +11°C° 0 mm 3 m/S 759 mmHg 86%
    04:00 +11°C° 0 mm 3 m/S 759 mmHg 86%
    05:00 +11°C° 0 mm 3 m/S 759 mmHg 87%
    06:00 +11°C° 0 mm 3 m/S 759 mmHg 89%
    07:00 +11°C° 0 mm 3 m/S 759 mmHg 90%
    08:00 +11°C° 0 mm 4 m/S 759 mmHg 88%
    09:00 +12°C° 0 mm 4 m/S 759 mmHg 86%
    10:00 +13°C° 0 mm 4 m/S 759 mmHg 84%
    11:00 +13°C° 0 mm 4 m/S 759 mmHg 83%
    12:00 +14°C° 0 mm 4 m/S 759 mmHg 82%
    13:00 +15°C° 0 mm 4 m/S 759 mmHg 81%
    14:00 +15°C° 0 mm 4 m/S 759 mmHg 82%
    15:00 +15°C° 0 mm 4 m/S 758 mmHg 82%
    16:00 +15°C° 0 mm 4 m/S 758 mmHg 82%
    17:00 +14°C° 0 mm 4 m/S 758 mmHg 85%
    18:00 +14°C° 0 mm 4 m/S 758 mmHg 89%
    19:00 +13°C° 0 mm 5 m/S 758 mmHg 92%
    20:00 +13°C° 0 mm 5 m/S 758 mmHg 92%
    21:00 +13°C° 0 mm 5 m/S 758 mmHg 93%
    22:00 +12°C° 0 mm 5 m/S 758 mmHg 93%
    23:00 +12°C° 0 mm 5 m/S 758 mmHg 92%

    übermorgen, 20 Oktober, Freitag

    Zeit Temperatur Niederschläge Wind Luftdruck Luftfeuchtigkeit
    00:00 +12°C° 0 mm 5 m/S 758 mmHg 91%
    01:00 +12°C° 0 mm 4 m/S 758 mmHg 91%
    02:00 +12°C° 0 mm 4 m/S 758 mmHg 90%
    03:00 +12°C° 0 mm 4 m/S 758 mmHg 89%
    04:00 +12°C° 0 mm 4 m/S 758 mmHg 88%
    05:00 +12°C° 0 mm 4 m/S 758 mmHg 86%
    06:00 +12°C° 0 mm 4 m/S 758 mmHg 83%
    07:00 +12°C° 0 mm 4 m/S 758 mmHg 81%
    08:00 +13°C° 0 mm 4 m/S 758 mmHg 79%
    09:00 +14°C° 0 mm 4 m/S 758 mmHg 77%
    10:00 +15°C° 0 mm 4 m/S 758 mmHg 75%
    11:00 +17°C° 0 mm 4 m/S 758 mmHg 73%
    12:00 +17°C° 0 mm 4 m/S 759 mmHg 72%
    13:00 +18°C° 0 mm 4 m/S 759 mmHg 71%
    14:00 +18°C° 0 mm 4 m/S 759 mmHg 72%
    15:00 +18°C° 0 mm 4 m/S 758 mmHg 73%
    16:00 +17°C° 0 mm 4 m/S 758 mmHg 74%
    17:00 +17°C° 0 mm 4 m/S 758 mmHg 73%
    18:00 +15°C° 0 mm 4 m/S 758 mmHg 72%
    19:00 +15°C° 0 mm 4 m/S 759 mmHg 71%
    20:00 +14°C° 0 mm 4 m/S 759 mmHg 74%
    21:00 +14°C° 0 mm 4 m/S 759 mmHg 78%
    22:00 +13°C° 0 mm 4 m/S 759 mmHg 81%
    23:00 +13°C° 0 mm 4 m/S 759 mmHg 85%

    21 Oktober, Samstag

    Zeit Temperatur Niederschläge Wind Luftdruck Luftfeuchtigkeit
    00:00 +13°C° 0 mm 3 m/S 759 mmHg 88%
    01:00 +13°C° 0 mm 3 m/S 759 mmHg 91%
    02:00 +12°C° 0 mm 3 m/S 759 mmHg 93%
    03:00 +12°C° 0 mm 3 m/S 758 mmHg 94%
    04:00 +12°C° 0 mm 3 m/S 758 mmHg 95%
    05:00 +11°C° 0 mm 3 m/S 758 mmHg 96%
    06:00 +11°C° 0 mm 3 m/S 758 mmHg 96%
    07:00 +10°C° 0 mm 3 m/S 758 mmHg 96%
    08:00 +11°C° 0 mm 3 m/S 758 mmHg 92%
    09:00 +12°C° 0 mm 4 m/S 758 mmHg 88%
    10:00 +13°C° 0 mm 4 m/S 758 mmHg 84%
    11:00 +14°C° 0 mm 4 m/S 757 mmHg 81%
    12:00 +14°C° 0 mm 5 m/S 757 mmHg 78%
    13:00 +15°C° 0 mm 5 m/S 757 mmHg 75%
    14:00 +14°C° 0,4 mm 5 m/S 756 mmHg 78%
    15:00 +14°C° 0,4 mm 5 m/S 756 mmHg 82%
    16:00 +14°C° 0,4 mm 5 m/S 756 mmHg 85%
    17:00 +13°C° 0,5 mm 5 m/S 756 mmHg 89%
    18:00 +13°C° 0,5 mm 5 m/S 756 mmHg 92%
    19:00 +13°C° 0,5 mm 5 m/S 756 mmHg 95%
    20:00 +12°C° 0,1 mm 5 m/S 756 mmHg 93%
    21:00 +12°C° 0,1 mm 5 m/S 756 mmHg 92%
    22:00 +12°C° 0,1 mm 5 m/S 756 mmHg 90%
    23:00 +12°C° 0 mm 5 m/S 756 mmHg 89%

    22 Oktober, Sonntag

    Zeit Temperatur Niederschläge Wind Luftdruck Luftfeuchtigkeit
    00:00 +10°C° 0 mm 6 m/S 756 mmHg 88%
    01:00 +10°C° 0 mm 6 m/S 756 mmHg 87%
    02:00 +9°C° 0 mm 6 m/S 756 mmHg 87%
    03:00 +9°C° 0 mm 7 m/S 755 mmHg 86%
    04:00 +9°C° 0 mm 7 m/S 755 mmHg 86%
    05:00 +9°C° 0 mm 7 m/S 755 mmHg 86%
    06:00 +9°C° 0 mm 7 m/S 755 mmHg 85%
    07:00 +9°C° 0 mm 7 m/S 755 mmHg 85%
    08:00 +9°C° 0 mm 7 m/S 755 mmHg 83%
    09:00 +10°C° 0 mm 8 m/S 755 mmHg 81%
    10:00 +10°C° 0 mm 8 m/S 755 mmHg 79%
    11:00 +10°C° 0,2 mm 8 m/S 755 mmHg 80%
    12:00 +10°C° 0,2 mm 7 m/S 756 mmHg 81%
    13:00 +11°C° 0,2 mm 7 m/S 756 mmHg 82%
    14:00 +11°C° 0,3 mm 7 m/S 756 mmHg 82%
    15:00 +11°C° 0,3 mm 7 m/S 756 mmHg 82%
    16:00 +11°C° 0,3 mm 6 m/S 756 mmHg 82%
    17:00 +10°C° 0,1 mm 6 m/S 757 mmHg 83%
    18:00 +10°C° 0,1 mm 6 m/S 757 mmHg 84%
    19:00 +9°C° 0,1 mm 6 m/S 758 mmHg 86%
    20:00 +9°C° 0,1 mm 6 m/S 758 mmHg 85%
    21:00 +9°C° 0,1 mm 6 m/S 759 mmHg 84%
    22:00 +9°C° 0,1 mm 6 m/S 759 mmHg 84%
    23:00 +9°C° 0,1 mm 6 m/S 759 mmHg 84%

    23 Oktober, Montag

    Zeit Temperatur Niederschläge Wind Luftdruck Luftfeuchtigkeit
    00:00 +9°C° 0,1 mm 6 m/S 760 mmHg 84%
    01:00 +9°C° 0,1 mm 6 m/S 760 mmHg 85%
    02:00 +9°C° 0,2 mm 6 m/S 760 mmHg 84%
    03:00 +9°C° 0,2 mm 6 m/S 761 mmHg 84%
    04:00 +9°C° 0,2 mm 5 m/S 761 mmHg 83%
    05:00 +9°C° 0,1 mm 5 m/S 761 mmHg 83%
    06:00 +9°C° 0,1 mm 5 m/S 761 mmHg 83%
    07:00 +9°C° 0,1 mm 5 m/S 762 mmHg 82%
    08:00 +9°C° 0,1 mm 5 m/S 762 mmHg 81%
    09:00 +10°C° 0,1 mm 5 m/S 762 mmHg 79%
    10:00 +10°C° 0,1 mm 5 m/S 763 mmHg 77%
    11:00 +10°C° 0,1 mm 6 m/S 763 mmHg 78%
    12:00 +11°C° 0,1 mm 6 m/S 763 mmHg 80%
    13:00 +11°C° 0,1 mm 6 m/S 763 mmHg 81%
    14:00 +11°C° 0,4 mm 6 m/S 763 mmHg 84%
    15:00 +10°C° 0,4 mm 7 m/S 762 mmHg 86%
    16:00 +10°C° 0,4 mm 7 m/S 762 mmHg 89%
    17:00 +10°C° 0,2 mm 7 m/S 762 mmHg 89%
    18:00 +11°C° 0,2 mm 7 m/S 762 mmHg 89%
    19:00 +11°C° 0,2 mm 8 m/S 762 mmHg 89%
    20:00 +11°C° 0,2 mm 8 m/S 762 mmHg 88%
    21:00 +11°C° 0,2 mm 8 m/S 762 mmHg 87%
    22:00 +11°C° 0,2 mm 8 m/S 762 mmHg 87%
    23:00 +11°C° 0,5 mm 8 m/S 761 mmHg 88%
    Mehr zeigen